Wetbulb
58.05 56.87 56.45 56.16 55.83 55.53 55.07 55.31 54.87 54.76 54.98 54.98 54.09 54.33 55.03 54.65 53.49 52.35 52.78 53.17 52.96 52.81 52.83 52.79 52.94 52.48 49.22 41.98 42.48 51.18 54.01 55.76 54.78 52.72 50.21 50.85 49.66 48.86 46.02 48.38 49.70 46.94 50.78 52.36 53.00 53.16 52.91
58.29 57.00 56.41 55.97 55.45 55.27 55.08 54.74 54.53 54.45 54.48 54.75 54.41 53.57 53.86 54.33 53.64 52.42 51.94 52.45 52.69 52.59 52.85 52.94 52.22 50.89 45.13 35.77 49.38 51.90 50.88 51.22 51.81 50.73 49.13 51.34 49.83 50.72 48.60 48.52 48.60 50.55 49.50 50.93 52.32 51.61 52.07
58.58 57.26 56.37 55.93 55.41 55.09 55.04 54.62 54.65 54.62 54.37 54.89 54.41 53.48 52.75 53.25 53.95 52.93 52.50 52.73 53.14 53.11 53.17 53.19 52.41 50.06 43.33 39.90 50.05 51.68 50.49 50.00 50.88 50.67 47.59 52.21 52.23 49.92 50.56 47.32 51.26 50.78 46.68 48.59 50.40 51.23 50.85
59.03 57.69 56.38 55.79 55.15 54.61 54.73 54.61 54.39 54.46 54.71 54.53 54.61 53.87 52.63 52.52 53.11 53.49 53.01 52.82 53.09 53.37 52.69 51.77 51.46 48.15 38.91 48.40 52.08 49.83 50.42 48.73 50.16 51.17 50.18 53.11 53.31 50.67 49.78 51.46 49.28 47.01 47.29 41.85 48.93 50.45 51.16
59.46 58.08 56.51 55.67 55.13 54.38 54.13 54.13 54.39 54.38 54.20 54.41 54.15 53.75 52.88 51.87 52.54 52.70 53.29 53.18 53.30 52.98 52.27 51.38 47.52 44.95 38.09 49.98 46.77 49.15 49.24 46.21 49.06 50.97 51.58 52.11 52.07 48.66 48.54 44.99 42.24 44.29 39.21 41.63 44.18 50.92 49.84
59.87 58.39 56.54 55.42 54.87 54.56 54.03 53.76 53.99 54.25 54.23 53.85 53.83 53.22 52.48 51.84 52.24 52.14 52.99 52.99 50.96 50.58 50.02 50.06 48.31 41.35 42.73 40.54 45.60 47.84 49.65 49.13 47.33 47.88 47.46 45.34 47.34 44.60 44.82 42.56 34.41 37.58 39.24 41.68 41.74 47.12 48.37
60.06 58.25 56.63 55.23 54.76 54.36 53.91 53.85 53.58 53.14 53.16 53.47 53.23 52.75 51.89 51.38 51.92 51.84 51.32 47.73 43.38 41.53 43.76 41.47 41.54 40.41 42.40 45.99 47.40 44.40 48.94 47.65 47.98 44.99 39.40 40.88 40.51 38.13 41.34 43.63 42.83 42.31 40.57 39.66 43.65 47.38 46.29
60.10 58.01 56.56 55.04 54.69 54.16 53.77 53.38 53.44 53.12 53.11 52.97 52.60 51.53 51.38 50.95 52.11 50.96 48.86 43.58 42.32 44.38 39.14 43.98 43.77 43.72 46.25 46.10 42.13 44.29 50.58 43.88 42.97 38.61 41.18 37.85 37.14 43.23 45.06 43.60 42.59 42.11 40.08 40.19 42.85 47.02 46.85
59.83 58.17 56.40 54.90 54.48 53.94 53.58 53.30 53.07 52.90 52.61 52.40 52.05 51.13 50.83 50.58 51.53 49.69 45.64 43.75 48.67 47.45 39.81 40.56 44.09 43.50 44.06 46.22 41.89 43.60 47.10 45.72 41.89 38.45 38.04 36.39 40.20 44.76 43.72 41.60 40.62 41.03 39.75 40.32 40.54 45.19 46.30
59.85 58.02 56.17 54.71 54.11 53.52 53.17 53.08 52.74 52.43 52.03 51.87 51.81 50.64 50.66 50.51 47.44 47.07 44.56 47.20 49.23 47.49 35.91 36.19 39.52 42.28 45.56 45.54 40.05 47.24 47.97 44.46 41.30 37.66 38.92 39.47 43.92 42.73 41.16 39.73 41.72 36.68 42.78 42.43 40.84 40.28 35.69
59.67 57.68 55.76 54.32 53.65 53.01 52.78 52.42 52.17 51.93 51.86 51.61 51.02 50.81 50.51 50.78 47.08 44.54 45.69 48.82 48.56 44.95 26.35 37.49 40.37 47.52 45.67 41.80 42.49 43.06 49.30 45.44 38.73 38.63 38.60 37.64 40.57 40.98 39.84 40.50 42.79 38.51 42.57 41.82 41.07 39.27 38.38
59.32 57.31 55.33 53.99 53.16 52.63 52.42 51.88 51.63 51.54 51.10 51.19 50.68 50.97 50.48 48.52 48.84 47.74 48.79 48.68 46.15 33.27 24.51 35.01 40.84 38.59 39.64 41.69 40.47 44.08 44.92 46.94 44.92 40.10 40.43 40.08 44.14 43.52 42.50 42.85 43.24 41.97 41.24 40.92 40.45 39.11 31.46
58.85 56.82 54.88 53.70 52.76 52.28 51.81 51.37 51.21 51.34 50.99 50.78 50.76 51.16 49.55 49.95 46.21 49.51 49.34 45.26 33.64 29.81 33.75 33.68 35.86 38.72 38.91 37.18 37.89 40.06 39.73 38.33 36.33 31.98 32.88 38.75 39.55 42.77 43.58 40.03 41.98 42.30 39.21 31.14 29.35 30.24 29.66
58.34 56.28 54.40 53.18 52.50 51.95 51.19 50.83 51.00 50.78 50.49 50.24 50.13 50.10 49.73 49.63 50.24 49.57 45.65 37.93 29.87 31.21 33.15 39.61 38.58 38.83 35.81 37.87 37.74 38.28 38.38 36.23 40.16 38.68 36.36 32.99 32.00 40.18 41.39 41.32 39.09 40.16 39.31 32.57 24.08 26.40 30.81
57.88 55.83 53.95 52.82 52.29 51.52 50.63 50.22 50.33 50.29 50.30 49.69 49.34 49.25 49.24 49.52 49.19 47.89 40.66 33.81 32.72 33.90 38.54 37.66 37.94 35.49 35.96 37.68 38.14 37.28 36.79 36.48 39.75 41.98 35.71 33.62 32.12 40.84 41.03 42.25 42.04 38.76 35.64 38.10 32.07 30.80 31.07
57.27 55.34 53.54 52.58 52.05 50.99 50.12 49.74 49.78 49.92 49.74 49.05 47.64 46.51 47.08 49.09 49.28 46.10 37.90 32.68 34.92 36.62 40.45 40.19 34.26 37.36 33.35 35.96 35.74 36.01 36.57 39.81 38.96 41.15 41.41 37.22 31.46 38.31 39.80 42.62 42.49 40.49 41.67 33.49 36.00 26.32 24.92
56.69 54.69 53.12 52.36 51.41 50.44 49.68 49.28 49.37 49.40 48.90 48.36 46.60 43.57 47.00 49.56 48.09 41.99 35.16 34.84 36.55 40.45 41.20 38.50 36.69 36.19 36.58 35.60 36.83 35.34 35.82 39.00 41.56 39.73 40.91 39.44 37.14 34.97 40.09 37.53 37.42 38.19 36.59 37.40 37.26 34.78 29.38
56.03 54.14 52.80 51.92 50.83 49.92 49.37 48.91 49.03 48.90 48.32 47.51 45.24 39.37 46.79 49.21 39.51 39.58 37.25 36.63 40.23 40.45 42.25 40.08 39.95 38.53 37.94 38.15 36.96 36.73 36.01 38.66 43.54 42.01 37.36 38.91 37.36 31.21 34.74 39.79 41.23 41.76 39.28 39.28 33.07 30.64 33.04
55.22 53.54 52.54 51.37 50.35 49.49 49.01 48.93 48.81 48.48 48.25 44.78 43.17 41.50 47.03 46.04 33.51 35.21 38.40 38.30 40.51 39.64 39.68 38.77 38.22 39.67 39.82 38.50 35.43 37.06 38.09 41.00 43.42 40.92 38.50 39.75 35.12 29.24 30.38 34.78 38.02 35.96 38.51 39.66 38.59 36.55 31.50
54.58 53.20 52.14 50.91 49.86 49.19 48.91 48.62 48.41 47.28 48.44 46.57 42.80 36.56 41.85 43.13 42.15 37.37 36.96 37.17 36.84 41.39 40.11 39.80 38.88 39.90 38.13 36.67 38.26 35.97 36.92 40.28 43.32 43.15 42.58 42.10 35.81 33.45 30.25 32.28 37.22 33.85 36.38 38.08 36.87 32.38 31.82
54.16 52.76 51.55 50.64 49.61 49.12 48.71 48.51 47.88 46.13 49.27 45.34 40.95 38.77 39.21 35.08 37.16 38.09 37.78 37.17 36.28 36.60 40.13 40.28 37.67 38.26 37.47 35.36 35.87 35.87 37.61 38.70 40.86 43.43 42.17 41.23 34.01 32.98 33.90 35.11 36.26 35.46 35.49 36.63 34.49 35.19 31.90
53.59 52.22 51.17 50.18 49.47 49.07 48.71 48.31 46.97 47.18 46.47 41.48 37.62 37.81 38.00 37.19 36.80 37.41 37.00 37.36 36.57 37.86 38.82 37.14 36.55 37.78 38.39 36.09 37.61 35.85 37.99 38.68 38.50 40.02 39.64 39.25 33.28 32.50 30.65 33.38 34.28 33.03 36.02 37.09 37.14 37.30 36.24
53.22 51.54 50.78 49.87 49.40 49.21 48.59 48.33 45.90 46.86 43.77 39.56 37.15 39.15 40.49 33.61 35.00 36.17 37.14 36.57 36.93 38.57 40.58 40.84 39.54 38.66 37.13 38.21 40.53 40.89 42.14 42.40 41.95 40.13 38.24 38.00 34.71 32.27 30.01 30.66 31.37 28.84 33.45 35.21 36.56 38.50 38.07
52.46 51.43 50.34 49.75 49.52 49.01 48.55 47.58 46.08 45.64 42.28 40.85 38.69 40.58 38.24 32.63 35.25 36.65 33.24 33.64 36.57 36.85 38.28 40.71 42.09 39.46 41.32 44.57 41.44 42.30 41.51 40.37 40.69 38.64 40.94 36.41 35.40 33.81 30.13 28.85 23.82 32.42 36.18 36.65 35.45 37.02 38.92
52.18 50.90 50.11 49.85 49.32 48.92 48.55 47.39 46.00 44.94 42.71 40.19 37.97 37.46 37.48 32.37 34.36 31.36 32.08 33.52 35.57 38.13 38.77 39.59 41.55 41.73 42.71 41.42 38.27 35.61 35.76 35.94 36.04 37.43 37.42 39.35 36.61 30.82 29.20 28.08 31.54 34.17 35.60 35.42 34.17 35.76 39.55
51.95 51.16 50.23 49.60 48.95 48.63 48.50 47.92 46.01 45.16 43.41 40.33 38.42 38.44 37.14 34.13 30.84 32.42 31.98 31.96 34.22 33.70 37.16 37.17 41.14 41.63 43.58 41.11 37.52 31.02 29.38 31.76 31.18 33.60 37.78 37.45 38.28 34.75 30.38 24.85 22.76 33.54 37.80 40.53 39.73 32.92 41.19
51.67 50.93 49.62 49.19 49.08 48.61 48.08 47.95 47.03 45.72 44.26 41.75 38.88 38.87 38.92 32.78 33.15 32.90 31.73 31.61 32.80 32.20 34.80 36.18 34.10 39.00 41.79 38.03 34.24 31.97 30.94 33.49 30.28 30.43 31.73 32.66 33.60 31.16 30.43 28.39 31.48 37.69 38.10 40.31 30.87 33.43 42.04
51.14 50.51 49.63 48.96 48.76 48.44 47.77 47.66 46.65 46.01 44.23 42.01 39.42 40.78 38.92 33.85 33.41 34.81 34.83 32.63 32.72 32.60 33.36 32.48 36.03 37.23 36.21 35.39 35.05 34.55 33.09 33.55 32.48 33.74 33.55 32.72 31.61 30.60 31.45 28.08 24.96 38.92 38.39 35.40 39.17 41.73 42.08
50.75 50.22 49.70 49.35 48.74 47.97 47.60 46.90 46.58 45.81 44.70 42.86 38.97 42.02 40.97 37.10 34.42 37.19 36.69 37.36 36.81 35.68 34.49 33.21 33.35 34.53 35.15 33.90 35.27 35.88 33.41 32.75 32.27 29.86 34.89 31.21 35.52 33.94 34.28 34.01 38.58 39.75 39.99 41.41 41.45 41.14 41.87
MSLP
1023.80 1023.59 1023.31 1023.25 1023.18 1023.04 1022.74 1022.63 1022.44 1022.01 1021.56 1021.12 1020.78 1020.43 1020.10 1019.78 1019.47 1019.18 1018.84 1018.71 1018.57 1018.43 1018.20 1017.99 1017.74 1017.46 1017.05 1016.33 1015.67 1015.75 1015.72 1015.42 1015.61 1016.20 1016.22 1015.43 1014.69 1013.83 1013.44 1014.09 1014.60 1015.39 1014.45 1014.04 1014.12 1014.58 1014.74
1023.41 1023.42 1023.14 1023.00 1022.73 1022.92 1022.64 1022.29 1022.15 1021.93 1021.51 1021.00 1020.67 1020.35 1020.10 1019.63 1019.40 1019.11 1018.88 1018.76 1018.60 1018.46 1018.19 1017.93 1017.73 1017.67 1017.11 1016.18 1015.72 1015.83 1016.06 1016.15 1016.24 1016.43 1016.30 1015.46 1014.37 1014.01 1013.46 1013.75 1014.30 1014.43 1014.80 1014.51 1014.32 1014.71 1015.00
1022.92 1022.93 1022.89 1022.85 1022.68 1022.44 1022.44 1022.12 1021.97 1021.74 1021.37 1020.90 1020.45 1020.27 1020.01 1019.65 1019.30 1019.00 1018.76 1018.64 1018.45 1018.23 1018.01 1017.76 1017.73 1017.72 1017.23 1016.22 1015.92 1016.04 1016.11 1016.58 1016.60 1016.27 1016.47 1015.74 1015.23 1014.63 1013.64 1014.21 1014.50 1014.07 1014.84 1015.47 1015.12 1015.05 1015.12
1022.53 1022.43 1022.41 1022.27 1022.31 1022.14 1022.11 1021.87 1021.73 1021.46 1021.16 1020.69 1020.29 1020.13 1019.97 1019.57 1019.17 1018.81 1018.57 1018.39 1018.26 1018.10 1017.96 1017.74 1017.78 1017.70 1016.61 1016.41 1016.21 1016.19 1016.12 1015.91 1016.36 1016.71 1016.99 1016.60 1016.18 1015.06 1014.17 1014.16 1014.13 1014.10 1014.51 1015.12 1014.90 1015.10 1015.68
1021.81 1022.15 1021.99 1022.12 1021.95 1021.74 1021.72 1021.56 1021.43 1021.19 1020.88 1020.51 1020.15 1019.89 1019.70 1019.50 1019.02 1018.72 1018.46 1018.14 1017.92 1017.84 1017.79 1017.72 1017.66 1017.45 1016.55 1016.61 1016.37 1016.39 1016.49 1015.88 1015.73 1016.32 1016.75 1016.37 1016.16 1014.79 1014.48 1013.77 1013.98 1013.94 1013.50 1013.94 1014.68 1014.83 1015.19
1021.26 1021.45 1021.57 1021.64 1021.70 1021.43 1021.39 1021.25 1021.11 1020.91 1020.57 1020.26 1019.97 1019.59 1019.47 1019.28 1018.79 1018.67 1018.24 1017.88 1017.73 1017.76 1017.65 1017.57 1017.30 1017.55 1016.80 1016.90 1016.77 1016.62 1016.65 1016.65 1016.17 1016.39 1016.68 1016.98 1016.06 1014.97 1014.33 1013.36 1012.41 1013.08 1013.15 1013.52 1013.95 1014.88 1014.89
1020.63 1020.91 1021.28 1021.21 1021.40 1021.18 1021.08 1020.96 1020.68 1020.55 1020.36 1020.10 1019.72 1019.29 1019.32 1019.08 1018.65 1018.59 1018.20 1017.65 1017.91 1017.84 1017.38 1016.86 1016.62 1016.43 1016.01 1016.39 1016.87 1016.59 1016.41 1016.50 1015.79 1016.60 1016.56 1017.15 1015.97 1014.20 1013.47 1013.30 1012.91 1013.06 1013.45 1013.92 1014.18 1014.78 1014.98
1019.99 1020.46 1020.71 1020.74 1020.93 1020.90 1020.77 1020.65 1020.36 1020.23 1020.03 1019.82 1019.53 1019.23 1019.17 1018.95 1018.52 1018.45 1018.31 1017.59 1017.66 1018.03 1017.07 1016.61 1016.37 1016.22 1015.80 1015.89 1015.20 1016.37 1016.16 1015.66 1016.12 1016.39 1016.55 1017.37 1015.78 1014.29 1014.31 1014.26 1014.04 1013.86 1013.76 1014.00 1014.69 1014.85 1015.00
1019.52 1019.78 1020.08 1020.23 1020.37 1020.51 1020.41 1020.34 1020.08 1019.83 1019.65 1019.53 1019.29 1019.09 1019.01 1018.75 1018.37 1018.44 1018.10 1017.85 1017.84 1017.89 1017.25 1016.74 1016.38 1016.06 1015.94 1015.98 1015.88 1015.99 1016.00 1015.59 1016.04 1016.47 1016.90 1016.64 1015.62 1015.16 1014.64 1014.38 1014.03 1013.84 1013.75 1014.13 1014.29 1015.09 1015.06
1019.08 1019.19 1019.47 1019.68 1019.89 1020.07 1020.03 1020.01 1019.74 1019.57 1019.35 1019.26 1018.99 1018.78 1018.70 1018.56 1018.57 1018.22 1018.04 1018.00 1018.19 1018.05 1017.19 1016.63 1016.32 1016.26 1016.04 1016.04 1016.55 1016.56 1016.24 1016.18 1016.25 1016.83 1017.31 1016.80 1015.63 1015.06 1014.64 1014.41 1014.19 1014.49 1014.75 1014.84 1014.93 1014.83 1014.52
1018.23 1018.60 1018.93 1019.24 1019.45 1019.65 1019.68 1019.64 1019.43 1019.28 1019.13 1018.97 1018.67 1018.47 1018.36 1018.31 1018.14 1018.10 1018.10 1018.06 1018.22 1017.91 1017.28 1016.95 1016.24 1016.16 1016.12 1016.07 1016.70 1016.91 1016.52 1016.22 1016.57 1016.96 1017.70 1016.95 1015.64 1015.25 1015.12 1014.81 1014.73 1015.20 1015.28 1015.22 1015.28 1014.93 1014.97
1017.47 1018.06 1018.32 1018.77 1018.97 1019.14 1019.32 1019.36 1019.22 1019.00 1018.85 1018.58 1018.31 1018.04 1018.10 1018.35 1018.28 1018.13 1018.16 1018.06 1017.76 1017.68 1017.17 1016.79 1016.36 1016.29 1016.03 1016.10 1016.63 1016.70 1016.55 1016.57 1017.19 1017.11 1017.49 1016.96 1016.58 1016.10 1015.68 1015.71 1015.33 1015.83 1015.64 1015.71 1015.94 1015.71 1015.21
1016.72 1017.28 1017.72 1018.21 1018.42 1018.60 1018.93 1019.03 1018.96 1018.72 1018.52 1018.29 1017.96 1017.70 1017.94 1018.09 1018.02 1018.12 1018.01 1017.61 1017.35 1016.62 1017.31 1016.76 1015.91 1015.89 1015.95 1016.22 1016.68 1016.61 1016.39 1016.52 1016.95 1017.67 1017.20 1017.17 1017.00 1016.97 1016.58 1016.21 1016.32 1015.62 1015.24 1015.74 1016.18 1016.04 1014.95
1015.92 1016.62 1017.11 1017.61 1017.91 1018.12 1018.48 1018.68 1018.64 1018.41 1018.23 1018.06 1017.95 1018.05 1018.25 1018.20 1018.15 1018.21 1018.03 1017.37 1016.67 1016.48 1016.19 1015.84 1015.62 1015.64 1015.82 1016.35 1016.66 1016.95 1016.72 1016.72 1016.90 1016.90 1016.82 1016.90 1017.36 1017.23 1017.33 1016.44 1015.92 1015.70 1015.20 1015.20 1015.29 1015.40 1015.06
1015.09 1015.79 1016.41 1016.92 1017.32 1017.69 1018.00 1018.27 1018.28 1018.08 1018.02 1017.82 1017.88 1018.24 1018.26 1018.26 1018.31 1018.40 1018.00 1016.91 1016.35 1015.85 1015.21 1015.04 1015.28 1015.00 1015.14 1015.95 1016.33 1016.76 1016.88 1016.54 1016.34 1015.83 1015.74 1016.50 1017.39 1017.77 1017.65 1017.06 1016.78 1016.37 1016.18 1016.53 1016.06 1016.52 1015.56
1014.13 1014.95 1015.65 1016.19 1016.73 1017.19 1017.46 1017.82 1017.89 1017.75 1017.64 1017.64 1017.71 1018.03 1018.23 1018.40 1018.36 1018.22 1017.64 1016.60 1016.00 1015.56 1015.07 1014.79 1014.30 1014.39 1014.35 1015.13 1015.89 1016.22 1016.48 1016.40 1016.10 1015.91 1015.80 1016.08 1017.09 1017.90 1017.90 1017.43 1017.21 1016.62 1016.51 1016.68 1016.47 1015.95 1015.03
1013.04 1014.05 1014.81 1015.48 1016.16 1016.71 1016.91 1017.27 1017.48 1017.36 1017.25 1017.53 1017.63 1017.71 1018.36 1018.40 1018.45 1018.00 1017.16 1016.36 1015.64 1015.24 1015.00 1014.47 1014.04 1013.96 1014.27 1014.49 1015.18 1015.65 1015.99 1016.25 1015.94 1015.94 1015.70 1015.80 1016.12 1018.04 1017.95 1017.52 1016.75 1016.93 1016.60 1016.55 1016.19 1016.06 1015.07
1012.11 1013.44 1014.34 1014.84 1015.65 1016.12 1016.42 1016.69 1017.00 1016.98 1017.13 1017.46 1017.43 1017.69 1018.34 1018.36 1018.31 1017.49 1016.70 1016.15 1015.43 1014.94 1014.72 1014.33 1014.01 1013.82 1013.93 1014.34 1014.63 1015.02 1015.46 1015.56 1015.65 1015.67 1015.75 1016.07 1016.30 1017.37 1017.82 1017.68 1017.32 1016.41 1016.15 1016.10 1015.82 1016.08 1015.88
1011.69 1012.47 1013.62 1014.27 1015.04 1015.52 1015.94 1016.13 1016.46 1016.47 1016.77 1017.00 1017.10 1017.65 1018.34 1018.25 1017.64 1017.05 1016.40 1015.74 1015.16 1014.77 1014.56 1014.16 1013.73 1013.90 1014.13 1014.11 1014.37 1014.82 1015.26 1015.63 1015.80 1015.80 1015.68 1015.84 1016.56 1017.39 1018.00 1018.07 1017.54 1016.99 1016.58 1016.31 1016.36 1016.39 1015.88
1010.92 1011.66 1012.77 1013.72 1014.33 1014.90 1015.41 1015.67 1015.92 1015.91 1016.23 1016.55 1016.90 1017.24 1017.91 1017.94 1017.36 1016.83 1016.06 1015.38 1014.97 1014.73 1014.49 1014.34 1014.00 1013.79 1013.84 1013.95 1014.42 1014.49 1015.02 1015.51 1015.68 1015.66 1015.89 1016.09 1016.43 1016.48 1016.42 1016.20 1015.99 1016.42 1016.12 1016.21 1016.42 1016.37 1015.43
1010.36 1011.17 1011.96 1013.04 1013.68 1014.33 1014.82 1015.21 1015.35 1015.51 1015.99 1016.22 1016.65 1016.62 1016.74 1017.12 1016.86 1016.47 1016.14 1015.50 1014.97 1014.68 1014.55 1014.34 1014.35 1014.09 1013.94 1013.95 1014.29 1014.50 1014.81 1015.44 1015.71 1015.83 1015.89 1015.94 1016.29 1016.78 1016.76 1016.78 1016.74 1016.40 1016.14 1016.05 1015.94 1015.82 1015.09
1009.68 1010.62 1011.68 1012.53 1013.33 1013.80 1014.39 1014.65 1014.86 1015.20 1015.81 1016.18 1016.44 1016.57 1017.07 1016.83 1016.65 1016.36 1016.02 1015.33 1014.98 1014.87 1014.66 1014.63 1014.53 1014.48 1014.45 1014.49 1014.28 1014.38 1014.54 1014.73 1014.93 1015.77 1015.96 1016.27 1016.69 1017.14 1017.38 1017.40 1017.32 1016.81 1016.15 1015.76 1015.60 1015.31 1014.83
1008.72 1010.23 1011.10 1012.12 1012.93 1013.57 1013.94 1014.12 1014.35 1014.78 1015.28 1015.79 1017.05 1016.93 1016.13 1016.84 1016.58 1016.23 1015.60 1015.53 1015.39 1015.25 1015.11 1014.96 1014.81 1014.75 1014.91 1015.07 1015.04 1014.80 1014.84 1014.64 1014.78 1015.17 1015.84 1016.36 1016.82 1017.39 1017.43 1017.52 1017.34 1016.63 1015.47 1015.31 1015.12 1014.90 1014.57
1007.84 1009.18 1010.46 1011.58 1012.35 1013.11 1013.39 1013.71 1014.15 1014.37 1014.75 1015.15 1016.00 1016.14 1015.92 1016.20 1016.38 1016.07 1016.23 1016.05 1015.92 1015.79 1015.46 1015.39 1015.29 1015.26 1016.02 1015.69 1015.51 1015.04 1015.09 1015.23 1015.39 1015.73 1015.73 1016.17 1016.62 1017.07 1017.28 1017.52 1016.68 1015.55 1015.45 1015.27 1015.06 1014.57 1014.35
1007.29 1008.57 1010.00 1010.93 1011.82 1012.63 1013.02 1013.53 1013.89 1014.07 1014.59 1015.00 1015.86 1015.71 1015.39 1015.97 1016.58 1016.92 1016.95 1016.65 1016.58 1016.33 1016.17 1016.23 1016.43 1016.46 1016.13 1015.70 1015.47 1015.15 1015.31 1015.48 1015.81 1016.07 1016.19 1016.23 1016.43 1016.74 1016.66 1016.24 1015.27 1014.63 1015.18 1015.12 1014.87 1014.31 1014.12
1007.00 1008.12 1009.74 1010.69 1011.49 1012.22 1012.68 1013.26 1013.70 1013.97 1014.44 1014.85 1015.89 1016.12 1015.70 1015.81 1017.59 1017.67 1017.68 1017.60 1017.09 1017.00 1017.04 1017.12 1017.04 1016.84 1016.43 1016.01 1015.66 1015.18 1014.98 1015.17 1015.59 1016.17 1016.44 1016.42 1016.10 1016.03 1016.36 1015.80 1014.98 1014.58 1014.85 1014.94 1014.82 1014.13 1014.14
1006.81 1007.92 1009.36 1010.59 1011.41 1012.01 1012.44 1013.03 1013.51 1013.92 1014.36 1014.74 1016.04 1016.36 1015.96 1016.72 1018.64 1018.59 1018.32 1018.25 1018.30 1017.95 1017.67 1017.84 1017.83 1017.39 1017.09 1016.23 1016.16 1015.65 1015.29 1015.55 1015.21 1015.42 1015.98 1016.22 1016.21 1015.86 1015.77 1015.42 1014.79 1014.56 1014.78 1014.98 1014.75 1014.95 1014.46
1006.53 1007.59 1009.16 1010.35 1011.42 1011.95 1012.27 1012.91 1013.43 1013.89 1014.32 1014.64 1016.24 1016.36 1016.04 1017.36 1019.17 1019.26 1019.21 1019.17 1019.14 1018.84 1018.36 1018.97 1018.94 1018.62 1018.33 1017.64 1016.70 1016.02 1015.68 1015.74 1015.66 1015.51 1015.42 1015.31 1015.50 1015.68 1015.80 1015.45 1014.87 1014.66 1015.12 1014.99 1015.04 1014.80 1014.86
1006.03 1007.36 1008.93 1010.12 1011.25 1011.83 1012.29 1012.82 1013.37 1013.86 1014.27 1014.59 1015.77 1016.31 1016.34 1017.09 1019.56 1020.02 1020.25 1020.31 1020.08 1019.95 1019.69 1019.74 1019.78 1019.68 1019.69 1018.96 1018.06 1017.17 1016.69 1016.62 1016.15 1015.75 1016.30 1016.01 1015.63 1015.48 1015.66 1014.98 1014.92 1015.13 1015.11 1015.31 1015.50 1015.49 1015.19
Wind_Speed
10 9 7 9 10 11 10 12 12 14 14 15 15 14 14 10 8 8 8 9 9 8 7 8 9 8 4 2 2 5 10 12 5 4 4 9 16 13 16 13 18 17 15 11 12 11 7
11 9 8 8 8 10 11 12 12 13 14 15 14 14 14 13 9 7 7 8 9 8 9 8 5 4 3 5 2 4 6 5 8 8 4 7 10 5 11 13 17 20 4 12 9 12 6
12 10 8 9 9 9 11 10 12 14 14 15 14 13 13 13 12 8 7 9 10 9 9 10 6 4 4 4 2 4 4 4 4 9 5 1 1 5 8 13 6 13 16 6 12 18 11
13 12 9 7 9 9 10 11 10 13 14 15 15 13 12 15 12 10 8 9 11 10 7 3 3 2 5 2 2 3 3 2 3 7 2 2 4 5 7 8 8 11 13 14 14 15 9
14 13 10 9 9 9 9 11 12 13 15 15 15 14 13 12 15 11 11 10 12 8 5 1 3 3 4 7 6 2 1 3 4 4 8 4 7 4 5 15 10 11 13 17 9 14 8
14 14 11 9 10 9 10 10 10 14 15 15 15 14 13 13 14 11 12 11 4 2 2 4 3 5 4 5 2 3 3 4 8 8 7 2 4 8 11 14 16 19 14 16 13 13 13
15 12 12 9 10 9 9 10 11 12 15 15 15 14 14 12 15 9 7 2 3 4 4 4 5 5 10 7 4 6 5 7 9 7 5 4 6 15 18 15 4 13 10 13 11 9 13
16 13 13 10 11 10 9 10 11 14 14 15 14 15 14 13 14 4 3 1 2 2 3 4 6 6 7 3 4 10 11 10 13 5 12 3 7 11 11 10 11 16 15 11 6 9 13
17 16 13 11 11 10 9 10 11 14 14 14 15 15 13 12 6 1 3 1 3 1 3 2 3 4 4 7 8 10 3 13 14 9 9 2 9 12 14 11 11 11 14 13 9 9 5
18 16 14 12 11 9 9 9 10 13 14 14 15 16 12 8 3 0 2 3 2 2 2 4 2 3 3 4 7 5 4 4 4 11 4 3 12 12 13 9 12 10 8 10 10 9 6
20 17 15 12 11 8 8 8 10 12 13 13 15 15 10 6 1 3 1 4 2 3 1 5 3 2 1 4 8 5 4 7 6 10 2 2 15 14 17 10 4 5 9 10 6 7 3
20 18 15 13 11 8 7 7 9 11 12 14 16 13 5 3 1 2 4 2 3 2 3 2 2 2 1 6 4 4 4 6 4 5 5 4 1 3 4 4 2 11 12 10 5 4 6
21 19 17 14 11 8 6 7 9 10 12 13 15 6 6 2 1 4 3 2 1 2 1 0 0 2 3 4 4 2 4 6 5 5 3 10 7 2 1 10 9 8 15 5 4 5 4
21 20 18 16 12 8 6 6 8 9 10 11 6 5 3 1 3 5 2 1 2 1 2 2 1 4 2 3 3 3 7 7 3 6 5 3 8 6 2 3 8 13 10 4 7 5 3
22 21 20 17 13 9 5 5 6 7 8 7 4 2 1 2 4 2 2 0 2 3 3 5 2 2 4 4 4 3 1 6 6 9 1 6 3 2 3 1 2 6 6 4 4 2 2
25 23 21 19 14 9 5 4 4 6 7 2 3 3 2 1 2 2 2 2 2 2 1 3 1 2 3 6 3 3 5 5 5 3 4 4 6 2 2 0 7 2 8 4 1 4 5
26 25 23 19 15 10 7 5 4 4 5 8 2 3 3 2 2 2 2 1 2 4 3 3 0 2 2 3 4 4 3 3 3 3 1 5 3 3 6 4 9 5 4 2 4 3 3
26 25 22 20 16 12 9 6 4 1 7 5 2 2 3 2 2 1 2 3 2 3 3 2 1 1 3 4 4 3 4 2 3 3 6 1 5 5 2 1 3 8 11 12 8 6 2
28 27 24 20 17 13 10 7 5 2 8 4 3 3 2 2 2 2 2 3 3 4 3 2 1 1 2 3 2 2 4 2 6 2 2 4 4 5 2 2 2 5 9 9 4 3 7
28 27 25 21 18 14 11 7 4 1 10 3 3 4 3 3 2 2 2 2 3 1 2 2 1 1 2 2 2 5 4 3 5 4 6 3 4 3 5 2 5 10 15 15 13 5 11
30 29 26 23 19 15 11 8 3 4 15 3 1 3 1 4 6 5 2 1 3 3 1 2 2 3 2 3 2 3 4 5 2 4 2 1 3 2 2 3 2 4 13 18 18 19 13
30 28 24 23 19 15 12 9 6 11 13 2 4 4 2 3 3 6 4 4 4 3 1 2 2 3 3 2 2 5 5 4 5 4 2 3 3 2 1 1 4 6 10 12 18 19 21
31 29 26 22 19 17 14 10 6 17 8 3 2 1 2 3 5 5 4 3 4 1 3 4 3 2 2 2 4 4 1 3 5 8 6 6 5 4 3 1 4 8 11 14 9 10 14
33 31 28 25 22 17 14 12 9 15 7 2 3 3 3 4 5 3 3 2 4 2 2 3 3 1 3 4 2 6 7 7 6 5 4 8 7 3 3 4 6 4 1 2 8 9 11
32 32 29 27 23 19 16 13 11 12 12 3 3 3 3 5 2 4 4 3 2 2 2 2 3 4 5 3 3 5 3 4 3 2 3 3 4 4 3 3 6 4 3 2 2 2 1
32 31 29 26 23 21 18 15 13 15 13 5 3 1 1 6 3 4 3 1 3 2 4 2 1 5 2 2 1 3 4 3 5 5 2 5 3 2 2 2 3 2 3 2 3 3 3
33 31 28 25 23 21 19 16 14 12 9 5 4 1 2 5 3 0 2 2 1 2 2 1 4 4 4 4 3 3 3 2 5 5 6 4 2 7 6 4 4 3 3 4 4 4 6
33 31 28 26 24 21 19 16 15 16 13 4 4 0 1 5 4 2 2 2 2 1 1 4 3 1 1 5 3 3 3 3 2 1 2 6 6 4 4 5 7 5 5 3 4 4 7
33 31 28 25 24 22 20 19 18 14 13 5 4 2 4 6 6 4 6 4 4 3 2 3 3 3 2 1 0 1 2 2 1 4 0 4 2 1 5 2 4 2 2 3 3 6 8
Wind_Direction
310 312 321 327 335 343 348 349 349 341 339 338 342 343 343 349 343 341 335 334 335 333 337 339 357 356 314 272 264 4 7 20 118 132 291 200 180 178 192 189 180 236 189 201 186 176 194
292 296 304 313 326 334 338 347 351 336 336 334 341 342 341 337 336 331 332 328 323 323 317 310 323 324 272 262 64 2 5 85 170 189 280 217 178 183 175 180 192 184 144 182 184 175 174
278 284 297 306 315 325 328 339 338 332 333 331 334 341 335 330 325 320 320 318 318 316 315 315 290 278 265 287 25 346 358 106 147 213 259 231 306 218 155 159 143 170 167 201 173 166 151
263 267 272 280 298 313 320 330 337 327 332 327 332 332 336 324 318 323 316 310 309 308 315 354 70 251 266 328 313 330 324 215 204 134 182 289 286 216 185 137 143 156 176 189 186 184 160
247 261 267 276 284 299 310 319 331 328 326 325 329 332 331 328 314 317 315 310 303 291 277 192 202 295 253 346 263 30 240 177 151 187 162 3 280 150 146 159 162 184 193 200 162 192 166
233 249 253 263 274 288 303 317 330 322 323 325 327 331 331 328 312 313 309 311 309 289 224 237 214 255 175 313 269 301 202 198 185 152 142 64 222 160 175 178 181 186 203 194 192 195 211
225 235 250 254 269 279 297 310 326 320 324 324 324 327 333 329 312 312 317 313 201 186 216 293 308 266 288 170 185 207 193 170 159 168 151 149 201 178 174 192 241 177 158 183 202 176 208
218 224 239 242 261 274 289 307 318 317 320 321 324 327 326 324 312 321 286 300 58 12 284 228 277 274 290 301 43 166 183 156 151 162 101 93 187 155 154 159 166 161 166 172 134 182 208
212 217 226 234 251 268 285 302 310 315 322 324 323 324 322 315 316 268 267 104 130 202 263 184 281 313 346 347 46 60 212 137 153 102 84 49 168 153 163 154 161 169 182 166 157 157 188
212 213 219 225 242 261 281 298 308 317 318 323 320 321 319 313 255 270 236 136 116 313 292 39 52 3 11 27 42 2 355 56 91 130 112 152 152 155 144 138 167 170 216 177 150 177 209
205 206 215 222 232 251 275 297 309 315 323 324 323 320 315 269 66 221 68 136 101 242 160 4 44 110 52 45 146 48 358 55 116 143 164 182 165 164 169 155 156 110 165 166 174 207 248
200 205 205 219 225 240 270 295 303 317 320 326 327 324 286 141 199 294 147 132 223 232 79 13 324 100 98 77 53 127 133 98 36 97 256 121 43 143 143 124 153 141 125 102 106 209 245
199 200 200 211 217 230 261 291 302 319 328 339 335 338 160 168 116 169 182 231 244 21 202 108 65 94 51 79 84 29 139 126 107 163 161 135 138 87 57 124 142 188 159 132 185 207 246
195 196 195 204 210 219 247 287 302 321 330 340 1 73 101 31 164 172 255 224 65 69 131 178 133 140 90 138 45 76 135 153 147 222 112 145 155 155 35 179 176 176 198 181 198 198 184
191 190 192 197 200 208 230 272 300 318 336 354 131 104 138 50 166 249 253 129 140 228 128 137 169 207 120 100 109 120 310 161 183 187 156 131 100 88 42 88 216 167 206 28 92 70 243
186 187 189 190 190 196 205 247 286 320 334 128 158 159 106 295 235 248 271 77 163 223 248 175 187 265 123 121 130 155 178 151 175 226 265 118 114 294 141 163 61 292 139 182 261 204 223
183 185 184 183 182 184 193 224 264 314 359 150 156 181 111 221 222 226 312 241 238 220 246 238 65 120 86 131 131 151 161 152 229 143 158 142 130 123 177 216 199 172 196 203 276 273 275
176 177 184 176 177 177 190 207 240 282 112 148 151 170 126 197 229 235 246 209 217 172 204 243 242 60 155 169 133 137 143 110 175 167 161 81 102 143 155 60 316 246 224 218 230 192 254
178 175 178 175 173 174 189 195 223 216 185 150 159 118 130 251 206 206 246 247 235 180 190 210 220 311 120 181 140 110 138 134 161 108 164 168 124 115 86 320 278 223 211 229 215 20 204
174 174 174 172 169 172 184 189 215 262 179 165 165 144 145 208 275 242 247 180 161 158 158 187 151 126 163 126 348 141 129 108 156 152 125 147 162 243 190 87 175 205 212 213 219 230 241
175 173 172 170 167 171 175 182 173 157 163 183 216 148 101 175 202 205 247 315 156 157 189 193 135 232 210 160 132 142 124 122 91 123 104 153 136 97 90 76 168 230 217 217 215 225 240
171 168 169 165 166 166 170 165 142 163 147 133 159 173 147 131 139 187 206 179 172 137 232 154 130 175 200 219 277 200 153 183 175 162 101 4 109 110 116 75 247 248 227 226 230 238 245
164 166 164 164 165 164 159 151 135 168 163 141 136 111 245 136 175 195 182 132 98 242 75 44 95 183 153 64 328 341 301 153 164 167 148 151 144 172 192 277 268 256 244 221 222 239 245
162 161 162 164 163 158 150 142 135 173 179 121 154 143 181 143 210 182 162 120 117 65 135 45 15 180 46 303 128 110 82 97 112 76 136 156 158 164 169 214 225 87 231 251 236 265 246
159 158 163 164 160 157 146 139 129 145 161 115 136 176 158 123 131 132 138 109 107 85 117 73 10 9 310 199 199 154 131 156 110 70 149 200 173 146 224 213 315 122 142 166 243 64 149
159 158 164 161 160 155 147 144 139 120 118 95 91 73 107 135 153 86 128 49 138 128 152 89 355 332 301 21 86 205 190 151 164 141 131 166 205 220 167 234 248 104 131 161 193 182 27
159 156 159 162 158 154 148 149 150 154 122 107 97 165 103 105 78 41 104 121 100 102 89 59 4 15 2 179 154 203 201 320 192 194 164 160 175 205 199 243 275 245 208 173 224 65 343
157 152 158 158 157 154 147 147 143 143 137 92 100 58 73 88 82 50 51 107 125 55 123 39 171 72 4 222 210 170 212 172 217 354 187 188 183 197 208 220 256 144 124 247 35 333 319
153 151 156 155 157 152 145 141 145 146 134 114 104 73 62 78 90 63 66 34 23 47 81 52 74 23 37 306 355 110 150 200 214 195 209 206 270 209 236 230 61 113 41 32 23 330 328